Lid_Strength_Index
1 1 1 1 2 2 2 2 2 2 2 2 2 2 3 3 3 3 3 3 3 3 3 3 2 2 1 4 3 -0 -2 0 5 5 3 3 3 4 5 4 4 5 5 4 4 4 4
2 2 1 1 2 2 3 3 3 3 3 3 2 2 3 3 3 3 3 3 3 3 3 3 2 2 2 5 0 -1 1 5 4 4 3 2 3 3 4 4 5 5 4 4 4 4 4
2 2 2 2 2 2 2 3 3 3 3 3 2 3 3 3 3 3 3 3 4 3 3 2 2 1 2 3 -0 0 1 4 4 2 2 1 1 3 3 5 3 4 6 5 4 4 5
2 2 3 3 3 3 3 3 3 3 3 3 3 3 3 3 3 3 3 4 4 2 2 1 1 1 4 1 -1 1 1 3 2 2 1 1 1 2 3 3 4 5 5 8 6 4 4
2 3 3 3 3 3 3 3 3 3 3 3 2 3 3 3 3 3 4 4 3 1 1 1 1 2 4 0 2 1 1 2 1 2 1 1 2 3 4 6 7 6 9 8 7 5 5
3 3 3 3 3 4 4 3 3 3 3 3 3 3 3 3 3 4 4 4 1 2 1 -0 1 3 2 4 2 1 0 1 2 2 3 3 4 5 5 6 10 10 8 7 8 6 5
2 3 3 3 3 3 3 3 3 3 3 3 3 3 3 3 4 4 4 1 3 4 2 4 3 3 3 1 1 2 1 2 2 3 5 4 6 8 7 6 6 6 7 8 6 5 6
2 3 3 2 2 3 3 3 3 3 3 3 3 3 4 4 4 5 4 2 2 2 5 2 2 3 2 1 4 3 1 4 4 6 5 6 7 5 5 6 7 7 7 7 6 5 6
2 2 2 2 2 2 2 3 3 3 3 4 4 4 4 4 5 4 1 1 -0 0 4 4 2 3 3 2 4 4 2 3 5 6 6 7 6 5 5 6 7 7 7 7 7 6 5
1 2 2 2 2 2 2 3 3 3 3 4 4 4 4 5 4 1 2 -0 -0 -0 7 6 4 3 2 3 5 2 2 3 5 6 5 6 5 6 6 7 6 8 6 7 7 8 10
1 1 2 2 2 2 2 2 3 3 3 3 4 5 5 6 4 3 1 -0 -0 1 13 6 5 1 2 4 4 4 2 3 5 5 5 7 6 6 7 6 5 7 5 6 7 8 8
1 1 1 1 2 2 2 2 3 3 3 3 4 5 5 3 3 1 -0 -0 1 8 12 7 5 5 5 4 4 3 3 3 3 5 5 6 4 5 5 5 5 5 6 6 7 8 11
0 1 1 1 2 2 2 2 3 3 3 4 5 5 5 2 2 -1 -0 2 8 11 5 7 6 5 5 6 5 5 5 6 7 8 8 6 6 5 5 6 5 6 7 11 13 12 12
0 0 1 1 2 2 2 2 2 3 3 4 5 6 4 2 -0 -0 1 5 11 7 7 5 5 5 7 6 6 5 6 7 5 6 7 9 9 6 5 6 7 7 7 10 16 14 12
0 1 0 1 2 2 2 2 3 3 4 5 6 0 1 -0 -0 -0 4 9 8 7 5 6 6 7 7 6 6 6 6 7 6 5 8 8 9 5 5 5 5 7 8 6 9 9 10
1 0 0 1 1 2 2 2 3 3 4 5 3 1 1 -1 -1 1 5 9 6 5 5 5 7 6 8 7 7 7 7 5 6 5 5 7 10 7 5 5 5 6 6 9 9 13 15
1 1 1 1 1 2 2 2 3 3 4 5 1 4 1 -1 0 3 7 6 5 4 4 6 6 7 7 7 7 7 7 6 5 5 5 6 7 8 7 7 7 7 8 8 8 12 19
1 1 1 1 1 2 2 2 3 4 5 4 2 6 1 -0 5 5 6 5 7 5 4 5 5 6 7 6 7 7 7 6 4 5 6 5 7 9 8 6 5 6 8 9 13 16 15
1 1 1 1 1 1 1 2 3 4 4 3 4 4 1 1 7 6 5 5 4 5 5 5 5 5 5 6 10 6 6 4 4 5 6 5 7 10 9 7 7 8 7 8 8 10 13
1 1 1 1 1 1 2 2 3 3 4 3 4 6 4 3 3 5 6 6 6 4 5 4 5 4 5 6 5 6 6 5 4 4 3 3 7 8 13 13 11 11 9 8 9 10 10
1 1 1 1 1 1 2 2 2 3 4 4 3 5 4 6 5 5 5 5 6 6 4 4 5 6 6 7 9 10 6 6 5 6 4 5 8 8 11 10 10 9 9 11 12 8 10
2 2 1 1 1 1 1 2 2 3 4 3 5 5 4 5 4 5 6 6 6 6 5 6 6 5 5 8 9 11 8 7 6 5 6 5 8 7 11 10 11 11 8 9 9 7 7
2 2 2 1 1 1 1 2 2 3 3 2 2 2 4 6 5 6 6 5 5 5 4 4 5 5 6 7 6 6 6 7 8 6 7 6 7 9 11 9 12 15 9 7 7 7 7
2 2 2 2 1 1 1 1 2 2 3 3 1 3 5 7 6 6 5 5 5 5 6 4 4 6 4 3 3 4 5 6 6 5 4 6 7 8 10 9 13 8 6 6 7 6 6
2 2 2 2 2 1 1 1 1 2 3 3 0 3 4 8 6 5 5 5 4 4 5 5 4 3 2 4 6 7 7 6 6 5 5 5 6 8 11 11 9 7 7 7 8 8 5
2 2 2 2 2 1 1 1 1 2 2 2 1 1 4 6 6 4 5 5 6 5 5 5 3 2 3 5 6 9 10 8 9 8 5 5 5 8 9 12 13 8 6 5 6 9 5
3 3 3 2 2 1 1 1 2 1 2 3 1 -1 4 5 4 4 5 6 4 5 6 5 4 4 3 6 8 9 9 7 9 9 8 8 8 9 9 10 9 6 6 5 10 10 5
3 3 3 3 2 2 2 1 2 1 2 2 2 -1 3 6 4 3 3 4 4 5 7 7 5 5 5 7 8 8 8 7 8 7 8 8 9 10 9 11 12 5 5 8 7 5 4
3 3 3 3 3 2 2 1 1 2 2 2 2 0 -0 3 4 3 2 2 2 3 4 4 5 5 5 6 6 6 8 6 7 10 5 9 7 9 9 10 5 4 5 4 4 4 4